Погода в Новоград-Волынском

Украина / Житомирская область     50°35′35″N   27°37′16″E
темп.,
°C
ветер,
м/с
пор.,
м/с
влажн.,
%
обл.,
%
осадки,
мм/ч
давл.,
гПа
погр.,
м
7 мая, пт
пт700:00+7юз386843 0.0 1013194
03:00+5ююз4108230 0.0 1013188
06:00+5ю4885100 0.0 1012160
09:00+10ю51064100 0.0 1010494
12:00+13ю71270100 0.1 10071678
15:00+13ююз71177100 1.1 10061064
18:00+13юз5878100 0.1 1005822
21:00+11з3486100 0.8 100669
8 мая, сб
сб800:00+10з51288100 0.4 1006426
03:00+7з81385100 0.7 1009782
06:00+5з9138692 0.0 10111011
09:00+4з91286100 0.1 1014980
12:00+8зсз8116476 0.1 10161479
15:00+9зсз9115785 0.3 10171924
18:00+8зсз79655 0.1 10191184
21:00+5зсз410791 0.1 1020275
9 мая, вс
вс900:00+2з39910 0.0 1022182
03:00+1з36930 0.0 1024106
06:00+1з34940 0.0 102577
09:00+7зсз35723 0.0 1026489
12:00+11зсз34524 0.0 10261381
15:00+14з34446 0.0 10251934
18:00+14з13435 0.0 10251523
21:00+8вюв33591 0.0 102636
10 мая, пн
пн1000:00+6ююв47696 0.0 1027100
03:00+5ююв487220 0.0 1028119
06:00+5ююв47735 0.0 1028116
09:00+11ююв596152 0.0 1028407
12:00+16ююв79485 0.0 10271230
15:00+17ююв79475 0.0 10261445
18:00+16ююв68585 0.0 10261237
21:00+11юв411780 0.0 1026184
11 мая, вт
вт1100:00+9юв513780 0.0 1027275
03:00+8юв513783 0.0 1027279
06:00+6юв412800 0.0 1027232
09:00+12юв611610 0.0 1026497
12:00+16юв68480 0.0 10251132
15:00+18юв67460 0.0 10241394
18:00+17вюв57570 0.0 10221159
21:00+11вюв49750 0.0 1022136